Retour au catalogue

COSMOS 839 DEB *

ActifUNKNOWN
NORAD 18689·DEBRIS·🇷🇺 Russia

Lancé Jul 8, 1976 depuis Plesetsk Cosmodrome

Loading…

Prochains Passages (prochaines 24 heures)

TLE

FraisSource: Space-Track

Époque: Sep 14, 2026, 01:11 UTC

1 18689U 76067BR  26257.04982538  .00000122  00000-0  11944-2 0  9995
2 18689  65.8163 125.1717 0932474 135.5061  10.5033 11.55790058401139

Suivez COSMOS 839 DEB * en temps réel avec AllMySat

Download on the App Store